{"data":{"norad_id":52470,"intl_designator":"2022-049V","name":"STARLINK-3859","alt_names":[],"object_type":"PAYLOAD","status":"ACTIVE","operator":null,"country":"US","launch_date":"2022-05-06","launch_site_code":"AFETR","launch_vehicle":null,"mission":null,"orbit_class":"UNKNOWN","rcs_meters":null,"size_class":null,"mass_kg":null,"dimensions":null,"purposes":["comms"],"wikipedia_slug":null,"has_3d_model":false,"image_url":null,"decayed_at":null,"tle_current":{"epoch":"2026-09-19T14:32:42.142848Z","epoch_age_seconds":140550,"freshness":"FRESH","line1":"1 52470U 22049V   26262.60604332  .00000022  00000+0  11778-4 0  9998","line2":"2 52470  53.1602 257.5498 0001319  86.2445 273.8708 15.34392059241676","mean_motion":15.34392059,"eccentricity":0.0001319,"inclination_deg":53.1602,"raan_deg":257.5498,"arg_perigee_deg":86.2445,"mean_anomaly_deg":273.8708,"bstar":1.1778e-5,"rev_number":24167,"period_min":93.848243775354,"perigee_km":461.82453269354,"apogee_km":463.62915257523,"semimajor_km":6840.8638426344,"source":"CELESTRAK","updated_at":"2026-09-20T09:00:40.051409Z"}}}